Meadville, PA

1:27 AM EST on December 13, 2017 (GMT -0500)
Port Meadville

Weather History for KGKJ - January, 2014

Change the Weather History Date:

Wednesday, January 15, 2014

  Actual Average Record
Temperature  
Mean Temperature 30 °F -  
Max Temperature 37 °F 31 °F 57 °F (1952)
Min Temperature 24 °F 14 °F -12 °F (1970)
Degree Days  
Heating Degree Days 34    
Moisture  
Dew Point 20 °F    
Average Humidity 69    
Maximum Humidity 89    
Minimum Humidity 58    
Precipitation  
Precipitation 0.00 in - - ()
Sea Level Pressure  
Sea Level Pressure 29.88 in    
Wind  
Wind Speed 8 mph (WSW)    
Max Wind Speed 15 mph    
Max Gust Speed 22 mph    
Visibility 9 miles    
Events Snow    
Averages and records for this station are not official NWS values.
T = Trace of Precipitation, MM = Missing Value Source: NWS Daily Summary

Daily Weather History Graph

Daily Weather History Graph

Search for Another Location

Airport or City:

Trip Planner

Search our weather history database for the weather conditions in past years. The results will help you decide how hot, cold, wet, or windy it might be!

Date:

Astronomy

Jan. 15, 2014 Rise Set
Actual Time 7:45 AM EST 5:15 PM EST
Civil Twilight 7:14 AM EST 5:46 PM EST
Nautical Twilight 6:40 AM EST 6:20 PM EST
Astronomical Twilight 6:07 AM EST 6:53 PM EST
Moon 5:12 PM EST (1/15) 6:59 AM EST (1/15)
Length of Visible Light 10h 31m
Length of Day
9h 30m
Full, 100% of the Moon is Illuminated
Jan 15
Full
Jan 15
Full
Jan 24
Last Quarter
Jan 30
New
Feb 6
First Quarter

Hourly Weather History & Observations

Time (EST) Temp. Windchill Dew Point Humidity Pressure Visibility Wind Dir Wind Speed Gust Speed Precip Events Conditions
12:53 AM 37.0 °F 31.6 °F 28.9 °F 73% 29.75 in 10.0 mi SSW 6.9 mph - N/A   Overcast
1:28 AM 37.4 °F 31.4 °F 28.4 °F 70% 29.72 in 10.0 mi SSW 8.1 mph - N/A   Overcast
1:53 AM 37.0 °F 31.0 °F 28.9 °F 73% 29.75 in 10.0 mi SSW 8.1 mph - N/A   Overcast
2:53 AM 34.0 °F 28.8 °F 28.9 °F 82% 29.79 in 10.0 mi WSW 5.8 mph - 0.00 in   Overcast
3:00 AM 33.8 °F 28.6 °F 28.4 °F 81% 29.75 in 10.0 mi WSW 5.8 mph - N/A   Overcast
3:15 AM 33.8 °F 28.6 °F 28.4 °F 81% 29.75 in 10.0 mi WSW 5.8 mph - N/A   Overcast
3:29 AM 33.8 °F 28.6 °F 30.2 °F 87% 29.76 in 7.0 mi West 5.8 mph - N/A   Overcast
3:38 AM 33.8 °F 28.6 °F 30.2 °F 87% 29.76 in 5.0 mi West 5.8 mph - N/A   Overcast
3:53 AM 33.1 °F 28.7 °F 30.0 °F 89% 29.80 in 5.0 mi West 4.6 mph - N/A   Overcast
4:19 AM 32.0 °F 23.6 °F 26.6 °F 80% 29.77 in 10.0 mi WSW 10.4 mph 19.6 mph N/A   Overcast
4:53 AM 30.9 °F 21.7 °F 21.0 °F 67% 29.83 in 10.0 mi WSW 11.5 mph 20.7 mph N/A   Overcast
5:53 AM 28.9 °F 20.4 °F 19.0 °F 67% 29.85 in 10.0 mi SW 9.2 mph 18.4 mph N/A   Overcast
6:38 AM 28.4 °F 19.1 °F 17.6 °F 64% 29.82 in 10.0 mi SW 10.4 mph - N/A   Overcast
6:53 AM 28.9 °F 19.8 °F 18.0 °F 64% 29.86 in 10.0 mi WSW 10.4 mph - N/A   Overcast
7:53 AM 28.9 °F 20.4 °F 18.0 °F 64% 29.88 in 10.0 mi SW 9.2 mph 16.1 mph N/A   Overcast
8:53 AM 28.9 °F 19.8 °F 17.1 °F 61% 29.92 in 10.0 mi SW 10.4 mph 21.9 mph N/A   Overcast
9:53 AM 28.0 °F 18.1 °F 17.1 °F 63% 29.94 in 10.0 mi SW 11.5 mph 19.6 mph N/A   Overcast
10:53 AM 27.0 °F 15.2 °F 15.1 °F 61% 29.95 in 10.0 mi WSW 15.0 mph 20.7 mph N/A   Overcast
11:53 AM 28.0 °F 17.0 °F 16.0 °F 61% 29.94 in 10.0 mi WSW 13.8 mph 17.3 mph N/A   Overcast
12:30 PM 28.4 °F 18.0 °F 17.6 °F 64% 29.90 in 10.0 mi WSW 12.7 mph - N/A   Overcast
12:53 PM 27.0 °F 17.3 °F 17.1 °F 66% 29.94 in 9.0 mi SW 10.4 mph 19.6 mph 0.00 in Snow Light Snow
1:53 PM 27.0 °F 16.7 °F 18.0 °F 69% 29.94 in 7.0 mi West 11.5 mph - 0.00 in Snow Light Snow
2:01 PM 26.6 °F 16.8 °F 17.6 °F 69% 29.89 in 8.0 mi WSW 10.4 mph - 0.00 in Snow Light Snow
2:10 PM 26.6 °F 16.8 °F 17.6 °F 69% 29.90 in 10.0 mi WSW 10.4 mph 17.3 mph 0.00 in   Overcast
2:53 PM 28.0 °F 18.6 °F 15.1 °F 58% 29.94 in 10.0 mi WSW 10.4 mph - 0.00 in   Overcast
3:53 PM 26.1 °F 18.4 °F 15.1 °F 63% 29.96 in 10.0 mi SW 6.9 mph - N/A   Overcast
4:53 PM 26.1 °F 20.5 °F 14.0 °F 60% 29.98 in 10.0 mi WSW 4.6 mph - N/A   Overcast
5:53 PM 25.0 °F 14.8 °F 14.0 °F 63% 29.99 in 10.0 mi WSW 10.4 mph - N/A   Overcast
6:53 PM 25.0 °F 17.1 °F 12.9 °F 60% 30.00 in 10.0 mi WSW 6.9 mph - N/A   Overcast
7:53 PM 25.0 °F 17.1 °F 14.0 °F 63% 30.01 in 10.0 mi West 6.9 mph - N/A   Overcast
8:53 PM 25.0 °F 19.3 °F 16.0 °F 69% 30.01 in 10.0 mi West 4.6 mph - N/A   Overcast
9:53 PM 24.1 °F 19.7 °F 14.0 °F 65% 30.01 in 10.0 mi Variable 3.5 mph - N/A   Overcast
10:53 PM 24.1 °F 16.0 °F 14.0 °F 65% 29.99 in 10.0 mi WSW 6.9 mph - N/A   Overcast
11:53 PM 24.1 °F 17.0 °F 15.1 °F 69% 29.98 in 10.0 mi SW 5.8 mph - N/A   Overcast